Regional Weather Roundup
Issued by NWS

Home | Current Version | Previous Version | Graphics & Text | Print | Product List | Glossary On
Versions: 1 2 3 4 5 6 7 8 9 10 11 12 13 14 15 16 17 18 19 20 21 22 23 24 25 26 27 28 29 30 31 32 33 34 35 36 37 38 39 40 41 42 43 44 45 46 47 48 49 50
072
ASUS43 KIND 052109
RWRIN

WEATHER ROUNDUP FOR INDIANA
NATIONAL WEATHER SERVICE INDIANAPOLIS IN
400 PM EST MON DEC 05 2016

NOTE: "FAIR" INDICATES FEW OR NO CLOUDS BELOW 12,000 FEET WITH NO
SIGNIFICANT WEATHER AND/OR OBSTRUCTIONS TO VISIBILITY.

* - STATION DOES NOT REPORT WEATHER SUCH AS PRECIPITATION OR FOG.

+ - STATION NOT QUALITY CONTROLLED BY THE NATIONAL WEATHER SERVICE.
    USE DATA WITH CAUTION...ESPECIALLY DEWPOINT AND RELATIVE
    HUMIDITY OBSERVATIONS.

INZ001>003-010>013-019-020-052200-
NORTHWEST INDIANA

CITY           SKY/WX    TMP DP  RH WIND       PRES   REMARKS
GARY /AIRPORT/ CLOUDY    34  32  93 VRB3      30.02F
KNOX *+        CLOUDY    32  19  59 S9        30.03F WCI  24
LA PORTE +     CLOUDY   N/A N/A N/A S6        30.04S
MICHIGAN CITY+ CLOUDY    32  32 100 S6        30.04S WCI  26
MONTICELLO +   MOSUNNY   38  31  74 E5        30.01F
RENSSELAER +   CLOUDY    34  32  93 SE8       30.03S WCI  27
VALPARAISO     CLOUDY    33  30  88 S6        30.03F WCI  28

$$

LMZ046-743>745-052200-
SOUTHERN LAKE MICHIGAN

STATION/POSITION TIME  TEMP    WIND        PRES    WAVE
                       AIR SEA DIR/SP/G            HT
                 (UTC) (F)     (DEG/KT/KT) (MB)    (FT)
BURNS HARBOR     2040   33     200/ 14/ 16 1017.3S

$$

INZ004-005-014>016-021>024-052200-
NORTH CENTRAL INDIANA

CITY           SKY/WX    TMP DP  RH WIND       PRES   REMARKS
ELKHART        CLOUDY    32  30  93 S7        30.05S WCI  26
GOSHEN         CLOUDY    34  28  79 S8        30.05S WCI  27
LOGANSPORT +   MOSUNNY   36  32  87 E7        30.03F
ROCHESTER +    CLOUDY    36  34  93 SE6       30.04F
SOUTH BEND     CLOUDY    32  30  92 S9        30.04F WCI  24
WARSAW +       CLOUDY    32  28  86 SE6       30.05F WCI  26

$$

INZ006>009-017-018-025>027-052200-
NORTHEAST INDIANA

CITY           SKY/WX    TMP DP  RH WIND       PRES   REMARKS
ANGOLA *+      CLOUDY    32  28  86 SW7       30.06S WCI  26
AUBURN +       CLOUDY    34  30  86 CALM      30.07F
FORT WAYNE     PTSUNNY   36  30  79 S5        30.06F
HUNTINGTON +   MOSUNNY   35  31  85 CALM      30.05S
KENDALLVILLE + CLOUDY    33  29  88 S6        30.06S WCI  27

$$

INZ028-029-035-036-043>045-051>053-052200-
WEST CENTRAL INDIANA

CITY           SKY/WX    TMP DP  RH WIND       PRES   REMARKS
CRAWFORDSVL +  SUNNY     40  36  84 E8        29.99F
GREENCASTLE +  MOSUNNY   41  36  81 E7        30.00F
LAFAYETTE      SUNNY     39  34  82 E7        30.01F
TERRE HAUTE    MOSUNNY   43  33  68 SE7       29.98F

$$

INZ030>032-037>040-046>048-054>057-064-065-052200-
CENTRAL INDIANA

CITY           SKY/WX    TMP DP  RH WIND       PRES   REMARKS
ANDERSON       SUNNY     41  32  70 E6        30.03F
CP ATTERBURY + CLOUDY    41  34  75 E6        30.02S
COLUMBUS       PTSUNNY   41  36  81 E3        30.02S
FRANKFORT +    PTSUNNY   44  37  77 SE9       30.02F
GREENWOOD *+   PTSUNNY   41  34  75 E6        30.02S
INDIANAPOLIS   PTSUNNY   42  33  70 E8        30.00F
-EAGLE CREEK   SUNNY     43  32  65 VRB7      30.00F
KOKOMO +       SUNNY     40  34  79 E8        30.03F
MARION +       SUNNY     39  33  77 SE6       30.04S
MT COMFORT *+  MOSUNNY   41  34  75 E7        30.02S
SHELBYVILLE    MOSUNNY   42  34  73 E7        30.01F
ZIONSVILLE +   SUNNY     42  33  71 E8        30.02S

$$

INZ033-034-041-042-049-050-058-059-052200-
EAST CENTRAL INDIANA

CITY           SKY/WX    TMP DP  RH WIND       PRES   REMARKS
MUNCIE         SUNNY     43  34  70 E6        30.04S

$$

INZ060-061-067>069-081>083-085>088-052200-
SOUTHWEST INDIANA

CITY           SKY/WX    TMP DP  RH WIND       PRES   REMARKS
EVANSVILLE     CLOUDY    43  34  70 E6        29.99F
HUNTINGBURG *+ CLOUDY    42  34  73 E7        30.01R
WASHINGTON +   PTSUNNY   42  36  78 E6        30.00S

$$

INZ062-063-066-070>080-084-089>092-052200-
SOUTH CENTRAL AND SOUTHEAST INDIANA

CITY           SKY/WX    TMP DP  RH WIND       PRES   REMARKS
BLOOMINGTON    CLOUDY    43  33  68 SE7       29.99F
MADISON *+     CLOUDY    43  32  65 E5        30.03F
NORTH VERNON + CLOUDY    45  39  81 E5        30.01F

$$





USA.gov is the U.S. government's official web portal to all federal, state and local government web resources and services.